Other Public Products
Issued by NWS Grand Forks, ND

Home | Current Version | Previous Version | Text Only | Print | Product List | Glossary On
Versions: 1 2 3 4 5 6 7 8 9 10 11 12 13 14 15 16 17 18 19 20 21 22 23 24 25 26 27 28 29 30 31 32 33 34 35 36 37 38 39 40 41 42 43 44 45 46 47 48 49 50
000
FPUS83 KFGF 240831
OPUFGF
PRAIRIE TO PINES WEATHER ROUNDUP
NATIONAL WEATHER SERVICE EASTERN NORTH DAKOTA/GRAND FORKS ND
300 AM CDT TUE MAY 24 2016

 **SATELLITE DATA USED TO AUGMENT SKY COVER AT AUTOMATED STATIONS**
 *****  WEATHER ACROSS EASTERN NORTH DAKOTA  *****

CITY           SKY/WX    TMP DP  RH WIND       PRES   REMARKS
GRAND FORKS    CLOUDY    60  51  72 MISG      29.76R
GRAND FORKS AF LGT RAIN  57  52  82 W20G28    29.80R
GRAND CITY NWS   N/A     59 N/A N/A W22         N/A
BUXTON           N/A     61  53  75 NW17        N/A
DEVILS LAKE    CLOUDY    60  45  57 SE9       29.77S
FARGO          CLEAR     61  47  59 NE5       29.73S
WAHPETON ARPT  SUNNY     55  45  67 S7        29.74R
$$

 *****  WEATHER ACROSS CENTRAL AND WESTERN NORTH DAKOTA  *****

CITY           SKY/WX    TMP DP  RH WIND       PRES   REMARKS
JAMESTOWN      CLOUDY    58  49  72 N12       29.78F
BISMARCK       PTCLDY    53  45  74 NE3       29.76S
MINOT          PTCLDY    53  41  63 SE3       29.76R
MINOT AFB      PTCLDY    47  39  74 W8        29.75S
GARRISON         N/A     49  40  71 NW6       29.79R
WILLISTON      CLEAR     47  39  74 SW3       29.79R
DICKINSON      CLEAR     41  34  76 NW7       29.80S
HETTINGER      CLEAR     37  33  85 W5        29.83R
$$

 *****  OTHER OBSERVATIONS NORTHEAST NORTH DAKOTA  *****

CITY           SKY/WX    TMP DP  RH WIND       PRES   REMARKS
WALHALLA       FAIR      52  52 100 CALM      29.74R
LANGDON        FAIR      55  46  71 CALM      29.76S
CAVALIER       PTSUNNY   59  50  72 NW6       29.73R
GRAFTON        PTSUNNY   57  52  82 SW15      29.78R
CANDO          FAIR      55  45  67 W3        29.78S
FORT TOTTEN      N/A     61  43  52 S7        29.95S
ROLLA          FAIR      50  43  76 SW3       29.78S
RUGBY          FAIR      54  41  62 W5        29.77S
 ***** THE ABOVE OBSERVATIONS ARE NON NWS ARE NOT QUALITY
        CONTROLLED AND MAY MIS-REPORT RAIN FOR SNOW...
$$

 *****  OTHER OBSERVATIONS SOUTHEAST NORTH DAKOTA *****

CITY           SKY/WX    TMP DP  RH WIND       PRES   REMARKS
COOPERSTOWN    NOT AVBL
VALLEY CITY    LGT RAIN  55  55 100 NW20G29   29.82R
OAKES            N/A    N/A N/A N/A MISG        N/A
GWINNER        FAIR      61  52  72 NW14      29.78R
SHEYENNE NWR     N/A     55  49  79 CALM      29.95S
BUFFALO          N/A     59  50  72 NW10        N/A
WYNDMERE         N/A     57  48  72 SW3         N/A
 ***** THE ABOVE OBSERVATIONS ARE NON NWS ARE NOT QUALITY
       CONTROLLED AND MAY MIS-REPORT RAIN FOR SNOW...
$$

  *****  WEATHER ACROSS NORTHERN MINNESOTA  *****

CITY           SKY/WX    TMP DP  RH WIND       PRES   REMARKS
FLAG ISLAND    CLOUDY    59  54  82 CALM      29.73R
WARROAD        CLOUDY    59  48  67 CALM      29.74S
ROSEAU         CLOUDY    57  50  77 S5        29.74R
HALLOCK        MOCLDY    57  48  72 NE3       29.72R
THF RVR FALLS  CLEAR     59  46  63 NE3       29.75S
HALSTAD        NOT AVBL
FOSSTON          N/A     55  48  76 CALM      29.76S
BAUDETTE       CLOUDY    54  51  90 E5        29.74S
WASKISH        CLOUDY    55  55 100 MISG      29.75S
CROOKSTON      PTCLDY    61  50  67 SE9       29.74R
$$
  *****  WEATHER ACROSS CENTRAL AND WEST MINNESOTA  *****

CITY           SKY/WX    TMP DP  RH WIND       PRES   REMARKS
BEMIDJI        CLOUDY    60  53  77 SE7       29.75F
PARK RAPIDS    MOCLDY    63  54  72 NE7       29.76S
WADENA         CLOUDY    61  59  94 CALM      29.76R
DETROIT LAKES  CLOUDY    59  54  82 CALM      29.77R
MOORHEAD       CLEAR     61  52  72 E5        29.75R
FERGUS FALLS   MOCLDY    61  55  82 S7        29.72R
ELBOW LAKE     FAIR      60  56  88 CALM      29.77R
MORRIS MN      CLEAR     63  57  82 SW7       29.75R
STAPLES        CLOUDY    59  57  94 CALM      29.77R
WHEATON        CLEAR     61  55  82 S3        29.76R
$$
  *****  WEATHER ELSEWHERE ACROSS MINNESOTA  *****

CITY           SKY/WX    TMP DP  RH WIND       PRES   REMARKS
DULUTH         CLOUDY    59  58  96 NE5       29.81R
INTRNTL FALLS  FOG       51  50  96 SE3       29.76R VSB 1/4
ELY            CLOUDY    57  55  94 S3        29.81R
CLOQUET        FOG       57  55  94 NE3       29.81R VSB 1/2
BRAINERD       CLOUDY    58  58 100 SE3       29.77R FOG
HIBBING        FOG       55  55 100 CALM      29.80R VSB 3/4
ALEXANDRIA     LGT RAIN  58  57  97 SW5       29.77R FOG
SAINT CLOUD    CLOUDY    62  61  96 S6        29.78R
MINNEAPOLIS    CLOUDY    68  60  75 SW7       29.80S
$$

  *****  WEATHER ACROSS SOUTH DAKOTA  *****

CITY           SKY/WX    TMP DP  RH WIND       PRES   REMARKS
SIOUX FALLS    CLEAR     62  59  90 S6        29.78S
BROOKINGS      FOG       59  57  94 S6        29.77F VSB 1
WATERTOWN      PTCLDY    58  54  86 SE5       29.77S
HURON          MOCLDY    58  57  97 SE6       29.74F
SISSETON         N/A     66  56  70 W14       29.73R
ABERDEEN       PTCLDY    61  49  64 N17G24    29.78R
MITCHELL       FOG       59  59 100 NE5       29.75S VSB 1
PIERRE         CLEAR     56  41  57 W14       29.74F
MOBRIDGE       PTCLDY    54  46  74 CALM      29.74S
RAPID CITY     CLEAR     50  36  58 NW10      29.84R
$$

  *****  SOME WEATHER IN NEARBY STATES *****

CITY           SKY/WX    TMP DP  RH WIND       PRES   REMARKS
GLASGOW MT     MOCLDY    46  41  82 W7        29.78S
GREAT FALLS MT CLOUDY    41  40  96 SW5       29.89S
CHEYENNE WY    CLEAR     43  38  82 W6        29.97F
SCOTTSBLUFF NE CLEAR     41  39  93 N5        29.90F
OMAHA NE       CLOUDY    62  58  86 S5        29.85R
DES MOINES IA  CLOUDY    66  62  87 W5        29.90R
DAVENPORT IA   MOCLDY    64  49  57 S8        29.92S
CHICAGO IL     CLOUDY    67  44  43 S12       29.95R
EAU CLAIRE WI  CLOUDY    64  61  90 S6        29.84S
LA CROSSE WI   CLOUDY    68  58  70 SE7       29.84S
$$

  *****  SOME NATIONAL WEATHER *****

CITY           SKY/WX    TMP DP  RH WIND       PRES   REMARKS
LA GUARDIA NY  LGT RAIN  61  59  93 NW8       29.86F
RALEIGH NC     PTCLDY    51  50  96 SW3       30.03S
ATLANTA GA     PTCLDY    65  49  56 NE7       30.04R
NEW ORLEANS LA CLEAR     70  63  78 SE5       30.00S
OKLAHOMA CITY  CLOUDY    71  70  96 S12       29.84S
ALBUQUERQUE NM CLEAR     59  16  18 SE7       29.94F
SALT LAKE CITY MOCLDY    54  40  59 CALM      29.81S
LOS ANGELES CA PTCLDY    58  52  80 SW6       29.93S
BOISE ID       PTCLDY    53  39  59 CALM      29.83S
SEATTLE WA     CLOUDY    59  47  64 N5        29.95F
$$

*** WEATHER ACROSS MANITOBA...SASKATCHEWAN AND ONTARIO ***
                ***ONTARIO***

CITY           SKY/WX    TMP DP  RH WIND       PRES   REMARKS
GERALDTON      NOT AVBL
THUNDER BAY    LGT RAIN  61  61 100 E5        29.77F
SIOUX LOOKOUT  MOCLDY    50  48  93 NE3       29.77R
TORONTO        CLEAR     57  39  51 VRB2      29.96F
BIG TROUT LK   CLOUDY    36  34  93 NE5       29.95R
PICKLE LAKE    NOT AVBL
DRYDEN         PTCLDY    61  52  72 S6        29.76R
KENORA         MOCLDY    61  50  67 S3        29.75R
$$
                *** MANITOBA***

CITY           SKY/WX    TMP DP  RH WIND       PRES   REMARKS
BRANDON        PTCLDY    43  34  70 NW9       29.73S
DAUPHIN        CLEAR     45  41  87 W8        29.73R
ISLAND LAKE    LGT RAIN  39  39 100 E12       29.93
PILOT MOUND      N/A     50  43  76 S5          N/A
THE PAS        CLOUDY    45  39  81 NE7       29.86S
THOMPSON       CLOUDY    37  34  87 NE7       29.99R
WINNIPEG       MOCLDY    54  46  76 S3        29.72R
LYNN LAKE      MOCLDY    36  32  87 E8        29.97S
CHURCHILL      MOCLDY    30  25  80 NW6       30.07R WCI  24
GILLAM         CLOUDY    27  21  80 NE9       30.06R WCI  17
$$
                ***SASKATCHEWAN***

CITY           SKY/WX    TMP DP  RH WIND       PRES   REMARKS
ESTEVAN        PTCLDY    41  37  87 SW7       29.75R
KINDERSLEY     CLOUDY    46  45  93 N10       29.76R
LLOYDMINSTER   CLOUDY    46  45  93 NE9       29.82S
PRINCE ALBERT  LGT RAIN  48  45  87 E17       29.80R
REGINA         PTCLDY    41  41 100 SW10      29.68S
YORKTON        CLEAR     50  46  87 S8        29.71R   C1F1C2F2C3F3C4F4C5F5C6F6C7F7C8F8C9F9CaFaCbFbCcFcCdFdCe!


USA.gov is the U.S. government's official web portal to all federal, state and local government web resources and services.